Simultaneous Nadir Overpasses (SNOs) Predictions

Prediction of SNOs between GOES-16 and NOAA-19 Satellite Orbit:

Table of predicted SNOs for the next 14.0 days since TLE Epoch: 10/12/2024
Index Date Time (GOES-16) GOES-16 Lat,Lon NOAA-19 Lat,Lon Distance(km) Time Diff (sec)
1 10/12/2024 14:14:13 -0.05, -75.21 -0.93, -71.45 429.47 80
2 10/14/2024 02:43:07 0.05, -75.21 -0.82, -79.03 436.12 80
3 10/15/2024 02:30:42 0.05, -75.22 -0.13, -76.01 90.68 80
4 10/16/2024 02:20:56 0.05, -75.23 0.56, -72.99 254.95 80
5 10/18/2024 14:40:03 -0.05, -75.27 0.50, -77.54 260.61 80
6 10/19/2024 14:24:58 -0.05, -75.28 -0.21, -74.53 85.42 80
7 10/20/2024 14:15:12 -0.05, -75.29 -0.92, -71.51 431.50 80
8 10/22/2024 02:46:44 0.05, -75.30 -0.84, -79.08 431.60 80
9 10/23/2024 02:34:18 0.04, -75.31 -0.10, -76.06 84.99 80
10 10/24/2024 02:19:12 0.04, -75.33 0.59, -73.04 262.02 80
